Wind_Speed
13 13 15 17 18 20 20 21 22 22 22 22 22 22 22 22 22 21 21 20 19 18 18 17 17 16 14 13 12 12 12 13 14 14 14 14 14 14 15 17 19 21 22
15 15 16 17 19 21 22 23 24 24 23 23 23 23 23 23 23 23 22 22 21 20 19 18 17 16 14 14 13 12 12 13 13 14 15 15 15 15 16 17 18 20 20
20 19 20 20 22 23 24 25 25 25 24 24 23 23 23 23 23 24 24 24 23 22 21 19 18 16 16 15 15 14 13 13 13 14 15 15 16 16 16 17 18 19 21
23 23 23 24 24 25 27 28 28 27 25 25 24 22 22 23 23 24 25 25 24 24 23 21 19 18 17 17 16 15 15 14 14 15 15 16 16 16 16 17 18 19 19
25 25 26 27 27 29 30 31 30 28 27 26 25 24 23 22 22 23 24 25 26 25 24 23 21 20 19 19 18 18 17 16 16 15 16 16 16 17 17 18 18 19 19
28 28 29 29 30 31 32 33 32 31 30 28 27 26 24 23 23 24 25 25 26 26 25 24 23 22 21 20 20 20 20 18 18 17 16 16 17 17 18 18 19 19 20
30 31 31 31 32 33 35 35 35 34 33 32 29 27 27 26 25 25 26 26 26 26 26 25 24 23 23 22 22 22 22 21 20 19 17 17 17 18 19 19 20 20 20
31 32 32 33 34 35 36 37 38 37 36 35 32 30 28 28 27 26 26 26 26 26 26 25 25 25 24 24 24 24 24 23 22 21 19 18 18 18 19 20 20 21 21
32 32 33 34 35 37 38 39 39 38 37 36 35 32 29 28 27 28 27 25 25 25 25 26 26 27 26 26 26 26 25 25 24 22 21 19 18 19 20 20 21 21 21
32 32 33 34 36 37 39 40 40 40 39 38 36 34 31 30 29 28 29 28 26 26 27 27 27 28 28 27 27 27 26 25 24 23 21 19 19 19 19 20 21 21 21
31 32 34 36 38 39 39 40 41 41 40 38 36 34 32 31 30 29 29 30 29 28 28 27 28 28 29 29 28 27 26 25 25 23 21 19 19 19 19 20 20 21 22
34 35 37 38 39 39 40 40 40 40 39 37 35 34 33 33 32 32 31 30 30 30 29 27 27 27 28 28 27 27 26 25 24 22 21 20 19 19 20 20 20 21 22
36 37 38 39 39 40 39 38 38 37 37 36 34 33 32 32 31 31 31 30 30 31 30 29 28 27 27 28 26 26 25 24 22 22 21 20 19 19 20 20 21 21 22
38 39 40 40 40 39 38 36 35 35 34 33 32 32 31 31 30 31 31 30 29 30 29 29 27 26 26 26 25 24 24 23 22 21 20 19 19 19 20 20 20 20 21
40 41 41 40 38 36 34 33 33 33 33 32 31 31 31 30 30 30 31 30 29 28 28 28 25 24 25 25 24 23 23 22 21 20 20 19 19 19 18 19 19 20 21
41 40 38 36 34 33 32 31 31 30 30 30 29 29 28 28 28 27 27 27 27 25 25 26 24 22 23 23 22 22 22 21 20 20 19 19 18 18 18 18 18 19 20
37 35 34 33 32 31 30 30 29 28 27 27 27 27 27 26 26 27 27 26 25 24 23 24 24 22 21 21 21 21 21 20 19 19 18 17 17 17 17 17 17 18 18
33 33 32 32 31 31 31 30 29 28 27 27 26 26 26 26 25 25 26 26 25 24 23 23 23 22 21 20 20 20 20 19 19 18 18 17 17 17 17 16 17 17 17
33 33 33 33 32 32 31 31 31 31 30 29 29 28 27 27 26 26 25 25 25 25 23 23 24 23 22 21 21 21 20 20 19 19 18 18 17 17 16 17 17 16 16
34 34 34 35 34 34 34 34 34 33 34 33 32 32 31 30 30 29 28 28 27 26 26 25 25 24 23 23 22 22 22 22 21 20 19 18 18 17 17 17 17 17 17
34 34 35 36 36 36 36 36 36 36 36 36 36 36 35 35 34 33 32 31 31 30 29 28 27 26 25 24 24 24 24 24 22 20 20 19 19 18 18 17 17 18 19
33 34 35 35 36 36 37 37 37 38 38 38 38 38 38 38 38 37 36 36 35 34 33 31 30 29 27 27 26 26 26 25 23 22 21 20 20 20 20 19 18 19 20
33 33 34 34 35 35 36 36 37 38 38 38 38 39 39 39 39 39 39 38 38 36 36 34 33 31 30 29 29 28 27 26 26 25 24 23 23 22 22 21 20 20 22
31 31 31 32 32 33 34 35 35 36 37 37 38 38 39 38 38 38 38 38 38 38 37 36 35 34 33 32 31 30 30 30 29 29 28 26 24 24 24 23 22 22 23
26 27 27 28 30 31 32 33 34 34 35 36 36 36 36 36 36 36 37 38 38 38 38 37 36 36 35 34 34 33 33 33 33 32 31 30 28 27 26 26 26 25 24
22 23 25 27 29 30 31 32 32 32 32 32 32 33 33 34 33 33 33 34 35 36 37 37 37 37 37 36 35 35 35 35 35 35 34 32 31 31 30 29 28 27 27
Wind_Direction
306 314 318 323 323 327 329 329 327 322 314 306 299 296 293 290 287 288 289 289 289 291 293 295 297 298 299 300 299 295 291 289 288 287 288 284 277 269 263 258 252 249 249
296 301 309 317 322 324 327 329 327 324 318 313 302 294 290 287 282 282 283 284 285 288 290 293 295 296 297 299 299 295 291 289 287 287 288 285 279 270 263 260 255 250 249
294 296 301 307 312 317 320 324 326 325 321 317 309 299 289 284 280 277 277 279 281 285 288 289 290 291 294 297 298 297 293 290 287 286 286 284 280 273 267 262 256 252 251
295 297 299 304 307 310 313 317 321 322 320 318 313 303 292 286 281 277 274 274 276 279 283 284 285 286 290 294 296 297 297 293 289 286 284 283 280 275 267 263 257 254 253
293 295 297 301 303 306 308 312 315 315 316 315 312 305 297 289 281 277 275 273 272 274 277 280 282 283 285 289 293 296 297 296 293 288 284 282 279 274 268 262 258 255 255
291 293 295 297 299 301 303 306 308 308 309 310 308 304 296 290 283 279 277 275 272 270 273 276 278 280 283 287 290 292 295 296 294 290 286 281 277 272 268 262 258 254 253
289 289 291 293 294 297 299 301 302 303 303 303 303 300 295 290 283 278 277 275 273 269 269 273 276 278 281 285 287 290 292 294 294 291 287 283 276 271 266 263 258 254 253
285 285 287 289 291 293 296 297 298 299 299 298 298 294 290 286 282 277 274 271 269 269 268 269 272 275 278 280 283 286 288 290 291 290 288 283 276 270 265 262 257 255 253
281 282 284 286 288 291 293 295 295 296 296 295 294 292 286 281 278 277 273 270 267 266 267 268 268 271 274 277 280 283 286 288 288 289 287 282 275 269 264 261 257 255 253
280 282 284 286 288 290 291 292 293 293 292 292 290 288 284 279 275 272 271 270 267 264 265 266 267 269 272 276 279 282 284 286 287 286 284 280 273 267 263 260 258 256 254
282 284 287 288 289 290 290 290 290 289 289 288 286 285 282 278 274 270 268 269 267 264 263 264 265 268 271 275 278 281 283 285 285 284 281 277 272 266 261 258 257 256 251
285 287 288 289 289 289 289 289 288 287 286 286 284 282 280 276 273 271 269 267 267 265 262 262 263 266 270 274 277 279 282 283 283 281 278 274 269 265 261 259 258 257 253
284 286 288 289 289 289 290 288 287 286 286 285 283 282 280 276 271 271 270 268 266 264 262 262 262 265 268 271 275 277 279 280 280 278 274 271 267 263 259 259 258 257 254
285 287 288 288 289 289 289 287 286 286 286 285 283 282 279 276 272 270 269 270 266 263 262 261 261 262 265 269 272 274 275 277 277 275 271 268 266 262 259 258 258 257 255
285 287 287 288 288 287 287 287 287 286 285 285 284 282 280 277 275 272 270 268 264 262 261 260 259 260 263 266 268 270 273 275 275 272 269 267 266 264 260 257 258 254 253
285 286 286 287 287 286 286 287 287 288 287 285 283 280 278 277 275 274 271 268 265 262 259 259 260 259 260 264 266 268 270 272 274 272 270 266 265 264 259 256 256 252 251
284 285 285 285 286 285 285 286 286 288 288 286 283 281 279 277 276 274 271 269 267 263 258 259 261 261 261 262 264 266 267 269 272 272 271 269 266 263 259 255 254 250 248
282 283 284 284 284 284 284 283 284 284 285 286 284 282 281 280 278 276 273 270 267 263 259 258 259 259 259 260 262 265 266 268 270 273 272 272 269 265 259 255 252 250 246
280 281 282 283 283 283 283 282 282 281 281 282 282 280 280 279 277 276 274 271 268 266 264 262 261 260 258 259 261 262 263 268 269 272 273 271 269 265 260 256 254 250 246
278 279 280 281 281 282 282 282 281 280 280 280 279 278 277 277 276 274 273 272 270 268 267 264 263 262 259 258 260 261 263 265 268 270 270 271 269 263 259 256 253 249 245
276 277 278 279 280 281 282 281 281 280 280 279 278 277 276 276 275 273 273 271 270 268 267 265 264 263 260 257 257 257 259 262 265 266 265 267 265 259 255 254 254 247 245
275 276 277 279 280 281 282 282 281 281 281 280 278 277 276 276 274 273 271 270 269 266 265 264 262 261 260 257 255 254 256 259 260 260 262 262 260 255 252 251 253 248 244
275 276 278 279 280 281 282 283 283 282 282 281 279 278 277 275 274 272 270 268 267 265 263 262 260 259 258 256 253 252 252 253 252 255 258 259 256 253 250 248 249 251 247
275 277 279 281 282 283 284 284 284 284 283 282 281 279 278 276 273 271 268 266 265 262 260 259 257 255 254 253 250 248 248 248 249 252 252 253 253 251 250 247 248 249 250
277 279 282 283 285 287 288 288 288 288 287 286 284 283 281 278 275 272 269 266 263 261 258 255 253 251 249 248 246 244 244 245 246 248 248 249 250 250 249 248 250 251 251
282 284 286 289 290 292 293 293 292 291 290 289 287 285 283 281 278 275 271 268 265 261 258 255 252 250 248 246 244 242 241 241 242 244 246 247 248 249 251 251 251 252 252
Height
5914 5913 5911 5910 5908 5906 5904 5901 5899 5897 5895 5893 5891 5889 5888 5887 5886 5885 5884 5883 5881 5880 5878 5877 5875 5874 5872 5871 5869 5868 5867 5865 5864 5863 5862 5861 5859 5859 5858 5858 5858 5859 5860
5912 5910 5908 5906 5904 5902 5899 5897 5895 5893 5890 5888 5886 5885 5884 5882 5881 5880 5879 5878 5877 5876 5874 5873 5871 5870 5869 5867 5866 5865 5863 5862 5861 5859 5858 5857 5856 5855 5854 5854 5854 5854 5855
5906 5905 5904 5902 5900 5898 5896 5894 5891 5888 5886 5883 5881 5879 5878 5877 5876 5875 5874 5873 5872 5871 5870 5869 5868 5866 5865 5864 5863 5861 5860 5858 5857 5856 5855 5854 5852 5851 5850 5850 5850 5850 5850
5900 5899 5898 5896 5895 5893 5891 5888 5886 5884 5881 5879 5876 5874 5872 5871 5870 5869 5869 5868 5867 5866 5865 5864 5863 5862 5861 5860 5859 5857 5856 5855 5853 5852 5851 5849 5848 5847 5846 5846 5845 5845 5846
5894 5893 5892 5890 5889 5887 5885 5883 5881 5879 5877 5874 5872 5869 5867 5866 5864 5864 5863 5862 5861 5861 5860 5859 5858 5857 5857 5855 5854 5853 5852 5850 5849 5848 5846 5845 5844 5843 5842 5841 5841 5841 5841
5887 5886 5885 5884 5882 5880 5879 5877 5875 5873 5871 5869 5867 5864 5862 5860 5859 5858 5857 5856 5855 5854 5854 5853 5852 5852 5851 5850 5849 5848 5847 5846 5845 5843 5842 5840 5839 5838 5837 5837 5836 5836 5836
5881 5880 5878 5877 5875 5874 5872 5870 5868 5866 5864 5862 5861 5859 5857 5855 5853 5852 5851 5849 5848 5848 5848 5847 5846 5846 5845 5844 5844 5843 5842 5841 5840 5838 5837 5836 5834 5833 5832 5832 5831 5831 5831
5874 5873 5871 5870 5868 5866 5864 5862 5860 5858 5856 5855 5854 5852 5851 5849 5847 5845 5844 5843 5842 5842 5841 5841 5840 5840 5839 5839 5838 5837 5836 5835 5834 5833 5832 5830 5829 5828 5827 5826 5826 5826 5826
5866 5865 5864 5862 5860 5858 5857 5854 5852 5850 5849 5846 5845 5844 5843 5842 5840 5839 5837 5836 5836 5835 5835 5835 5834 5833 5833 5832 5832 5831 5830 5829 5828 5827 5826 5824 5823 5822 5821 5820 5820 5820 5820
5858 5857 5855 5854 5852 5850 5848 5846 5844 5841 5840 5838 5836 5835 5834 5833 5832 5832 5830 5829 5829 5828 5828 5828 5828 5827 5826 5826 5825 5824 5823 5822 5821 5820 5819 5818 5817 5816 5815 5815 5815 5815 5815
5849 5848 5847 5845 5843 5841 5839 5837 5834 5832 5830 5829 5827 5826 5825 5824 5823 5823 5823 5822 5822 5821 5821 5821 5821 5820 5819 5819 5818 5817 5816 5816 5815 5814 5813 5812 5811 5811 5810 5809 5809 5809 5809
5841 5840 5838 5836 5834 5832 5830 5827 5825 5823 5821 5819 5818 5817 5816 5815 5814 5813 5814 5814 5814 5813 5813 5813 5813 5813 5812 5811 5811 5810 5809 5809 5808 5807 5807 5806 5805 5805 5804 5804 5803 5803 5804
5833 5831 5829 5827 5825 5823 5820 5818 5816 5814 5812 5810 5809 5808 5807 5806 5805 5804 5804 5805 5805 5805 5805 5805 5805 5805 5805 5804 5804 5803 5803 5802 5801 5801 5800 5800 5799 5799 5799 5798 5798 5797 5798
5823 5822 5820 5818 5816 5813 5811 5809 5807 5805 5803 5802 5800 5799 5798 5797 5797 5796 5796 5796 5796 5796 5796 5797 5797 5798 5798 5797 5797 5796 5796 5795 5795 5794 5794 5794 5793 5793 5793 5792 5792 5792 5792
5814 5812 5810 5808 5806 5804 5802 5800 5799 5797 5795 5794 5792 5791 5790 5789 5789 5788 5788 5788 5789 5789 5789 5789 5790 5791 5791 5790 5790 5789 5789 5788 5788 5788 5788 5787 5787 5787 5787 5787 5787 5787 5788
5803 5802 5800 5799 5797 5796 5794 5792 5791 5789 5787 5786 5784 5784 5783 5782 5781 5781 5780 5780 5780 5781 5781 5781 5782 5784 5784 5783 5783 5783 5782 5782 5782 5781 5781 5781 5781 5781 5781 5781 5781 5782 5782
5794 5792 5791 5790 5789 5788 5786 5785 5784 5782 5780 5779 5777 5776 5775 5775 5774 5774 5773 5773 5773 5773 5774 5774 5775 5776 5777 5776 5776 5776 5776 5776 5775 5775 5774 5774 5774 5775 5775 5776 5776 5776 5777
5785 5784 5783 5782 5781 5780 5779 5778 5776 5775 5774 5772 5771 5770 5769 5768 5767 5767 5766 5766 5766 5767 5767 5768 5768 5769 5770 5770 5770 5769 5769 5769 5769 5769 5768 5768 5769 5769 5770 5770 5771 5772 5772
5776 5775 5775 5774 5773 5772 5771 5770 5769 5768 5766 5765 5764 5763 5762 5761 5760 5760 5760 5759 5759 5759 5760 5761 5761 5762 5763 5763 5763 5763 5763 5763 5763 5763 5763 5763 5763 5763 5764 5765 5766 5767 5768
5767 5767 5766 5765 5764 5763 5762 5761 5760 5759 5758 5757 5756 5755 5754 5753 5752 5752 5752 5752 5752 5752 5752 5753 5754 5755 5756 5756 5756 5756 5756 5757 5757 5757 5757 5757 5757 5757 5758 5760 5761 5762 5763
5758 5758 5757 5756 5755 5754 5753 5752 5751 5750 5749 5747 5746 5745 5744 5743 5743 5743 5743 5743 5744 5744 5744 5745 5746 5747 5747 5748 5749 5749 5750 5750 5750 5751 5751 5751 5752 5752 5753 5754 5755 5757 5758
5749 5748 5748 5747 5746 5745 5744 5742 5741 5740 5738 5737 5736 5734 5733 5733 5732 5732 5732 5733 5734 5734 5735 5736 5737 5738 5739 5740 5741 5742 5742 5743 5743 5744 5745 5745 5746 5747 5748 5749 5750 5751 5752
5739 5739 5738 5737 5736 5735 5734 5732 5731 5729 5727 5726 5724 5723 5722 5721 5720 5720 5720 5721 5722 5723 5724 5725 5727 5728 5729 5731 5732 5733 5734 5735 5736 5737 5737 5738 5740 5741 5742 5743 5744 5745 5746
5730 5730 5729 5728 5727 5725 5724 5722 5721 5719 5717 5715 5713 5711 5710 5709 5708 5708 5708 5708 5709 5711 5712 5714 5715 5717 5718 5720 5722 5724 5726 5727 5728 5729 5730 5731 5733 5734 5735 5736 5737 5738 5740
5722 5721 5721 5719 5718 5716 5714 5712 5710 5708 5706 5704 5702 5700 5698 5697 5696 5696 5696 5696 5697 5698 5699 5701 5703 5704 5706 5709 5711 5713 5715 5717 5719 5720 5721 5723 5725 5726 5727 5729 5730 5732 5733
5715 5714 5713 5711 5709 5707 5705 5703 5701 5699 5696 5694 5692 5690 5688 5686 5685 5684 5684 5684 5684 5685 5686 5688 5690 5692 5694 5696 5699 5702 5704 5707 5709 5711 5712 5714 5716 5718 5719 5721 5722 5724 5725